Погода в Минске

Погода в Минске : погода сейчас, прогноз погоды и архив. Всё, что Вы хотите узнать о погоде в Минске!

Хотите узнать прогноз погоды Минск? Тогда Вам сюда: Погода Минск

Поиск расширенной информации на нашем сайте:

Другие новости

Новости СМИ2

Главная страница сайта

Новости сайта

03.07.2017

Напоминаем, что на нашем специализированном сайте Метеоцентр.Азия вы можете получить высокодетализированные автоматические прогнозы погоды по пунктам России, СНГ и мира в авиационном формате (включающие направление и скорость ветра, видимость, явления погоды, количество и форму облачности, нижнюю и верхнюю границу облачности).


Погода в Минске - сегодня

Время (UTC), дата Ветер
(°,м/с) 
Видим.   Явления Облачность Т
(°С)
Тd
(°С)
f(%) Тe
(°С)
Pmin
(гПа)
dP
(гПа)
Po
(мм)
O2
(г/м3)
Тmin Tmax R s Состояние
почвы
03 18.07.17 290 (З) 17000 м    4/0 верхняя 
[Ci fib]
+12.3 +9.9 85 +15  1019.1  0.4  744  285      0.0     
06 18.07.17 260 (З) 20000 м    8/8 600 м верхняя 
[Sc|Ci fib]
+14.8 +9.9 72 +16  1019.4  0.6  744  283  +12.2    0.0     
09 18.07.17 250 (З) 20000 м    8/8 1020 м 
[Cu Sc]
+18.5 +8.5 52 +19  1019.1  0.1  745  279           
12 18.07.17 280 (З) 19000 м    8/8 840 м 
[Sc]
+18.9 +8 49 +20  1018.8  -0.3  744  279           
15 18.07.17 270 (З) 22000 м    8/4 1000 м средняя 
[Sc|Ac trans]
+19 +8.7 51 +20  1018.4  -0.4  744  279           
18 18.07.17 290 (З) 20000 м    8/0 средняя 
[Ac trans]
+18.6 +8.7 52 +20  1018.4  744  279    +21       
21 18.07.17 270 (З) 21000 м    ясно 
+15.1 +8.9 66 +16  1019.1  0.3  744  283           
00 19.07.17 220 (ЮЗ) 19000 м    8/0 средняя 
[Ac trans]
+14.2 +10 76 +16  1019.4  0.2  744  283           
03 19.07.17 280 (З) 20000 м    9/9 1440 м 
[Sc]
+14.7 +9.9 73 +17  1019.6  0.3  745  283           
06 19.07.17 310 (СЗ) 17000 м    9/9 1080 м 
[Sc]
+15.5 +9.9 69 +18  1020.1  0.5  745  282  +14         
09 19.07.17 280 (З) 22000 м    10/8 1080 м средняя 
[Sc|Ac trans]
+17.3 +10.4 64 +21  1019.8  -0.1  745  280           
12 19.07.17 260 (З) 20000 м  {дождь}  8/6 1410 м средняя 
[Sc|Ac trans]
+19.3 +10.8 58 +23  1018.7  -0.8  744  278      0.0     
15 19.07.17 320 (СЗ) 20000 м    8/5 1440 м средняя 
[Sc|Ac trans]
+19.9 +11 56 +24  1017.3  -1.3  743  277      0.0     
18 19.07.17 тихо ()   19000 м    6/3 1000 м средняя 
[Sc|Ac trans]
+19.3 +10.5 57 +21  1017  -0.4  743  278    +21.9  0.0     
21 19.07.17 тихо ()   17000 м    4/0 средняя 
[Ac trans]
+15.8 +11.7 77 +19  1016.9  -0.4  743  281           
00 20.07.17 тихо ()   15000 м    6/0 средняя, верхняя 
[Ac trans|Ci fib]
+15.1 +12.3 83 +20  1016.6  -0.4  742  281           
03 20.07.17 тихо ()   13000 м    3/0 средняя 
[Ac trans]
+12.9 +12 94 +17  1015.7  -1.1  742  283           
06 20.07.17 130 (ЮВ) 17000 м    8/0 средняя, верхняя 
[Ac trans|Ci fib]
+20.2 +13.6 66 +27  1014.3  -0.6  741  275  +12.8         
09 20.07.17 210 (ЮЗ) 17000 м    4/3 960 м верхняя 
[Cu hum|Ci fib]
+23.1 +12.3 51 +28  1013.3  -0.7  741  273           
12 20.07.17 190 (Ю) 17000 м    8/8 720 м средняя 
[Sc|Ac trans]
+23.9 +9.7 41 +25  1011.9  -1.3  740  272           
15 20.07.17 040 (СВ) 19000 м    8/8 800 м 
[Sc]
+20.9 +13.5 63 +27  1011.6  -0.6  739  274           
18 20.07.17 110 (В) 17000 м    8/5 800 м средняя 
[Sc|Ac trans]
+19.6 +13.5 68 +28  1011.6  -0.1  739  275    +25.7       
21 20.07.17 тихо ()   16000 м    8/6 800 м средняя 
[Sc|Ac trans]
+17.7 +13.8 78 +25  1012.3  0.5  740  277           
00 21.07.17 тихо ()   13000 м    ясно 
+14.7 +13.4 92 +21  1012.5  -0.1  739  280           
03 21.07.17 030 (СВ) 10 км    8/0 средняя, верхняя 
[Ac trans|Ci fib]
+14 +13.4 96 +21  1012.9  0.3  740  281           
Время (UTC), дата Ветер
(°,м/с) 
Видим.   Явления Облачность Т
(°С)
Тd
(°С)
f(%) Тe
(°С)
Pmin
(гПа)
dP
(гПа)
Po
(мм)
O2
(г/м3)
Тmin Tmax R s Состояние
почвы

Для получения пояснительной информации подведите курсор к названию столбца.

ПОГОДА в Минске - архив

Всё, что Вы хотите узнать о погоде в Минске - удобно и подробно!

Выберите нужную дату (начиная с 1 января 2015* года) и нажмите кнопку "Найти".
Будут отображены архивные сводки погоды по пункту Минск, начиная с указанной даты.


Отображать данные в формате CSV (для использования в таблицах Excel)


Внимание! Наш архив погоды предназначен исключительно для личного некоммерческого использования в познавательных целях. Если Вам необходимы официальные справки о состоянии погоды (для производственных, юридических, коммерческих и т.п. целей), обращайтесь в органы Росгидромета.

*Примечание: данная дата относится к архиву по метеостанциям СССР (Россия, СНГ, Балтия).
Архив по метеостанциям Зарубежной Европы и Азии (кроме Китая) хранится 10 дней, по другим регионам земного шара (Китай, Африка, Америка, Австралия, Океания) - 1 день.

Минск - район местоположения метеостанции


Название, широта, долгота, высота метеостанции:
Минск (город) 53.9°ш. 27.6°д. 231 м над ур. моря [Беларусь]

Дополнительная информация

В oтличие oт бoльшинства пoгoдных сайтoв мы публикуем пoдрoбную метеoинфoрмацию в детальнoм прoфессиoнальнoм фoрмате.

Характеристики температуры и влажнoсти вoздуха измеряются на высoте 2 м в тени вдали oт зданий и деревьев.
Скoрoсть ветра измеряется на высoте 10 м (на урoвне рoста челoвека скoрoсть ветра ниже в 1.5-2 раза). Если метеoстанция нахoдится в гoрoде или в лесу, тo скoрoсть ветра занижена на 2-4 м/с пo сравнению с oткрытым местoм. Скoрoсть ветра над акватoриями крупных рек и oзёр, а также на вершинах хoлмoв на 2-5 м/с выше, чем в oбычных услoвиях.
Атмoсфернoе давление в разных тoчках местнoсти мoжет значительнo oтличаться oт давления на метеoстанции, в зависимoсти oт услoвий рельефа (при пoдъёме на 10 м давление пoнижается примернo на 1 мм рт.ст.).